Location: Little Maitland River
(43.8022°N, 81.1549°W)
Time: 23:09:09
(UTC+00:00)

Cosmos 1892 Rocket - Pass Details

Date: 09 December 2025
Orbit: 599 x 626 km, 82.5° (Epoch: 19 January)

Event Time Altitude Azimuth Distance (km) Brightness Sun altitude
Rises 10:28:24 0° 179° (S) 2,856 7.1 -24.1°
Reaches altitude 10° 10:30:36 10° 176° (S) 1,961 6.3 -23.7°
Maximum altitude 10:34:54 65° 96° (E) 679 3.9 -23.0°
Drops below altitude 10° 10:39:17 10° 14° (NNE) 1,993 6.2 -22.2°
Sets 10:41:32 0° 12° (NNE) 2,908 7.0 -21.8°
